DateTimeUTC,F1_A11,F1_S11,BsB_S11,BsG_S11,BsR_S11,BbsB_S11,BbsG_S11,BbsR_S11,BaB_A11,BaG_A11,BaR_A11,Tu_S11,T_S11,Uu_S11,U_S11,P_S11,T1_A11
2021-02-01T16:00:00Z,00000200,21000000,,,,,,,0000.18,-000.25,0000.15,16.4,24.0,,00.0,0625.2,30.9
2021-02-01T16:01:00Z,00000200,21000000,,,,,,,-000.14,-000.33,-000.53,16.4,24.0,,00.0,0625.2,30.9
2021-02-01T16:02:00Z,00000200,21000000,,,,,,,0000.05,0000.28,0000.54,16.4,24.0,,00.0,0625.2,30.9
2021-02-01T16:03:00Z,00000200,61000000,,,,,,,0000.33,0000.22,-000.21,16.4,24.0,,00.0,0625.2,30.9
2021-02-01T16:04:00Z,00000200,41000000,0000.72,0000.16,0000.13,-001.01,0000.06,0000.19,0000.05,-000.28,-000.06,16.8,23.8,,00.0,0626.0,31.0
2021-02-01T16:05:00Z,00000200,01000000,0000.06,-000.04,0000.01,0000.43,0000.30,0000.14,0000.11,0000.18,0000.59,16.9,23.8,,00.0,0626.1,31.0
2021-02-01T16:06:00Z,00000200,01000000,0000.01,0000.43,-000.08,0000.44,0000.19,0000.15,0000.12,0000.19,-000.43,17.0,23.8,,00.0,0626.1,31.0
2021-02-01T16:07:00Z,00000200,01000000,-000.19,-000.04,-000.31,0000.20,-000.05,0000.04,-000.27,0000.02,-000.11,17.1,23.9,,00.0,0626.1,31.0
2021-02-01T16:08:00Z,00000200,01000000,0000.22,-000.08,0000.03,-000.39,-000.13,0000.38,0000.18,-000.00,0000.22,17.1,23.9,,00.0,0626.1,31.0
2021-02-01T16:09:00Z,00000200,01000000,0000.17,0000.11,0000.02,-000.12,0000.13,0000.14,-000.19,-000.10,0000.30,17.0,23.8,,00.0,0626.1,30.9
2021-02-01T16:10:00Z,00000200,01000000,0000.59,0000.27,0000.14,0000.23,0000.27,0000.14,0000.42,0000.38,-000.22,17.0,23.8,,00.0,0626.1,30.9
2021-02-01T16:11:00Z,00000200,01000000,0000.52,0000.29,0000.23,0000.18,0000.21,0000.27,0000.08,-000.06,0000.09,16.9,23.8,,00.0,0626.1,30.9
2021-02-01T16:12:00Z,00000200,01000000,0000.60,0000.21,-000.00,0000.09,0000.19,0000.25,-000.08,0000.13,0000.09,16.9,23.7,,00.0,0626.1,30.9
2021-02-01T16:13:00Z,00000200,01000000,-000.04,0000.11,0000.01,0000.01,0000.05,0000.05,0000.21,-000.18,-000.06,16.8,23.7,,00.0,0626.1,30.9
2021-02-01T16:14:00Z,00000200,01000000,0000.44,0000.02,-000.10,0000.26,0000.25,-000.05,-000.10,-000.13,0000.07,16.8,23.7,,00.0,0626.1,30.9
2021-02-01T16:15:00Z,00000200,01000000,0000.45,0000.13,0000.17,0000.28,0000.01,-000.06,0000.07,0000.25,-000.05,16.7,23.7,,00.0,0626.1,30.9
2021-02-01T16:16:00Z,00000200,01000000,0000.63,0000.30,0000.06,-000.61,0000.06,0000.10,0000.34,0000.49,0000.11,16.7,23.6,,00.0,0626.1,30.9
2021-02-01T16:17:00Z,00000200,01000000,0000.68,0000.29,0000.33,0000.28,0000.10,0000.07,0000.22,0000.10,0000.19,16.7,23.6,,00.0,0626.0,30.9
2021-02-01T16:18:00Z,00000200,01000000,0000.74,0000.26,-000.06,0000.27,0000.23,-000.12,0000.04,0000.10,0000.37,16.8,23.7,,00.0,0626.0,30.9
2021-02-01T16:19:00Z,00000200,01000000,0000.30,-000.03,0000.20,-000.04,0000.33,0000.34,-000.09,-000.12,-000.15,16.9,23.7,,00.0,0626.0,30.9
2021-02-01T16:20:00Z,00000200,01000000,-000.03,0000.35,0000.24,-000.00,0000.07,-000.02,-000.08,0000.23,0000.39,17.0,23.8,,00.0,0626.0,30.9
2021-02-01T16:21:00Z,00000200,01000000,0000.60,0000.17,0000.03,-000.03,0000.18,0000.32,0000.15,0000.03,-000.23,17.1,23.8,,00.0,0626.1,31.0
2021-02-01T16:22:00Z,00000200,01000000,0000.66,0000.03,0000.29,-000.02,-000.05,0000.04,-000.21,-000.29,-000.09,17.3,23.9,,00.0,0626.1,31.0
2021-02-01T16:23:00Z,00000200,01000000,0000.31,0000.10,-000.07,-000.81,0000.12,0000.23,0000.26,-000.20,0000.13,17.4,23.9,,00.0,0626.1,31.0
2021-02-01T16:24:00Z,00000200,01000000,0000.40,0000.09,0000.10,0000.35,0000.09,0000.18,-000.04,0000.14,-000.19,17.4,23.9,,00.0,0626.1,31.0
2021-02-01T16:25:00Z,00000200,01000000,0000.09,-000.04,0000.09,-000.29,-000.16,0000.15,-000.13,-000.08,-000.32,17.3,23.9,,00.0,0626.1,30.9
2021-02-01T16:26:00Z,00000200,01000000,0000.68,-000.12,-000.06,0000.19,0000.22,0000.15,-000.39,-000.13,-000.21,17.3,23.9,,00.0,0626.1,30.9
2021-02-01T16:27:00Z,00000200,01000000,0000.42,0000.07,0000.14,0000.10,0000.36,-000.10,0000.01,-000.26,0000.33,17.2,23.8,,00.0,0626.1,30.9
2021-02-01T16:28:00Z,00000200,01000000,0000.02,0000.46,0000.23,-000.00,0000.15,0000.03,0000.22,-000.10,0000.03,17.1,23.8,,00.0,0626.1,30.9
2021-02-01T16:29:00Z,00000200,01000000,0000.56,0000.15,0000.13,0000.00,0000.29,0000.31,0000.25,0000.35,0000.02,17.1,23.8,,00.0,0626.1,30.9
2021-02-01T16:30:00Z,00000200,01000000,0000.32,0000.08,-000.02,0000.23,0000.12,0000.11,0000.08,0000.15,0000.11,17.0,23.7,,00.0,0626.1,30.9
2021-02-01T16:31:00Z,00000200,01000000,0000.69,0000.37,-000.13,-000.03,0000.18,0000.11,0000.15,0000.59,0000.47,17.0,23.7,,00.0,0626.1,30.9
2021-02-01T16:32:00Z,00000200,01000000,0000.12,0000.15,0000.25,0000.11,0000.16,0000.03,-000.01,-000.30,-000.40,17.0,23.7,,00.0,0626.1,30.9
2021-02-01T16:33:00Z,00000200,01000000,-000.03,0000.30,-000.03,0000.62,0000.38,0000.21,-000.30,-000.40,-000.16,17.0,23.8,,00.0,0626.1,30.9
2021-02-01T16:34:00Z,00000200,01000000,0000.03,-000.03,0000.07,0000.37,0000.12,0000.00,0000.37,0000.24,0000.24,17.0,23.8,,00.0,0626.1,30.9
2021-02-01T16:35:00Z,00000200,01000000,0000.41,0000.01,0000.09,0000.33,0000.12,0000.13,-000.06,-000.18,0000.01,17.0,23.7,,00.0,0626.1,30.9
2021-02-01T16:36:00Z,00000200,01000000,0001.08,0000.33,0000.16,0000.39,0000.14,0000.18,0000.07,0000.11,0000.01,16.9,23.7,,00.0,0626.1,30.9
2021-02-01T16:37:00Z,00000200,01000000,0000.67,0000.02,0000.10,-000.25,0000.25,-000.13,-000.18,0000.50,-000.01,16.9,23.7,,00.0,0626.1,30.9
2021-02-01T16:38:00Z,00000200,01000000,0000.52,-000.08,0000.18,0000.24,-000.01,-000.05,0000.28,-000.29,0000.26,16.8,23.7,,00.0,0626.1,30.9
2021-02-01T16:39:00Z,00000200,01000000,0001.08,0000.28,0000.04,-000.20,0000.11,0000.01,0000.31,0000.11,0000.01,16.8,23.6,,00.0,0626.1,30.9
2021-02-01T16:40:00Z,00000200,01000000,0000.46,-000.11,-000.18,0000.51,0000.13,0000.26,-000.35,-000.13,-000.35,16.7,23.6,,00.0,0626.1,30.9
2021-02-01T16:41:00Z,00000200,01000000,0000.46,-000.13,0000.03,-000.05,-000.11,0000.12,0000.07,-000.28,-000.17,16.7,23.6,,00.0,0626.1,30.9
2021-02-01T16:42:00Z,00000200,01000000,0001.41,0000.03,0000.01,0000.24,-000.03,0000.01,-000.27,0000.29,0000.26,16.6,23.5,,00.0,0626.1,30.9
2021-02-01T16:43:00Z,00000200,01000000,0000.81,0000.03,0000.00,0000.23,0000.18,0000.24,0000.55,0000.10,0000.03,16.6,23.5,,00.0,0626.1,30.9
2021-02-01T16:44:00Z,00000200,01000000,0000.49,0000.05,0000.17,-000.00,-000.15,0000.14,0000.04,-000.27,0000.16,16.5,23.5,,00.0,0626.0,30.9
2021-02-01T16:45:00Z,00000200,01000000,0001.51,0000.09,0000.10,-000.17,-000.00,0000.25,0000.10,0000.15,0000.35,16.5,23.4,,00.0,0626.0,30.9
2021-02-01T16:46:00Z,00000200,01000000,0000.93,-000.04,0000.13,-000.09,0000.13,-000.03,0000.15,0000.54,0000.25,16.5,23.4,,00.0,0626.0,30.8
2021-02-01T16:47:00Z,00000200,01000000,0000.79,0000.16,0000.25,-000.04,-000.03,0000.07,0000.38,0000.69,-000.13,16.5,23.4,,00.0,0626.0,30.8
2021-02-01T16:48:00Z,00000200,01000000,0000.98,-000.09,-000.06,0000.36,0000.17,0000.16,0000.34,0000.12,0000.29,16.6,23.4,,00.0,0626.0,30.9
2021-02-01T16:49:00Z,00000200,01000000,0000.64,0000.16,0000.22,-000.34,0000.10,0000.28,-000.11,0000.22,-000.11,16.7,23.5,,00.0,0625.9,30.9
2021-02-01T16:50:00Z,00000200,01000000,0000.77,0000.28,0000.17,-000.09,0000.10,0000.33,0000.10,-000.08,0000.13,16.9,23.6,,00.0,0625.9,30.9
2021-02-01T16:51:00Z,00000200,01000000,0000.55,0000.05,0000.22,0000.02,0000.12,0000.20,0000.11,-000.05,0000.15,16.9,23.6,,00.0,0625.9,30.9
2021-02-01T16:52:00Z,00000200,01000000,0000.14,0000.21,0000.16,-000.05,0000.08,0000.07,-000.28,0000.13,-000.08,17.0,23.6,,00.0,0625.9,30.9
2021-02-01T16:53:00Z,00000200,01000000,0000.32,-000.03,0000.11,-000.28,0000.11,-000.02,0000.02,-000.45,-000.01,17.0,23.6,,00.0,0625.9,30.9
2021-02-01T16:54:00Z,00000200,01000000,0001.12,0000.14,0000.29,0000.06,0000.08,-000.02,-000.00,0000.26,-000.21,16.9,23.6,,00.0,0625.9,30.9
2021-02-01T16:55:00Z,00000200,01000000,-000.02,-000.04,0000.16,-000.38,-000.10,0000.31,-000.31,-000.30,-000.08,16.8,23.6,,00.0,0625.9,30.9
2021-02-01T16:56:00Z,00000200,01000000,0000.38,0000.01,0000.00,0000.59,-000.02,0000.23,0000.43,-000.07,0000.09,16.8,23.5,,00.0,0625.9,30.9
2021-02-01T16:57:00Z,00000200,41000000,,,,,,,0000.01,0000.01,0000.37,16.8,23.5,,00.0,0625.9,30.9
2021-02-01T16:58:00Z,00000200,61000000,,,,,,,-000.36,0000.26,-000.17,16.3,23.6,,00.0,0625.0,30.9
2021-02-01T16:59:00Z,00000200,21000000,,,,,,,0000.45,-000.31,0000.04,16.2,23.7,,00.0,0625.0,30.9
